Regional Weather Roundup
Issued by NWS

Home | Current Version | Previous Version | Text Only | Print | Product List | Glossary Off
Versions: 1 2 3 4 5 6 7 8 9 10 11 12 13 14 15 16 17 18 19 20 21 22 23 24 25 26 27 28 29 30 31 32 33 34 35 36 37 38 39 40 41 42 43 44 45 46 47 48 49 50

000
ASUS43 KDMX 201007
RWRIA

WEATHER ROUNDUP FOR IOWA
NATIONAL WEATHER SERVICE DES MOINES IA
400 AM CST SAT DEC 20 2014

NOTE: "FAIR" INDICATES FEW OR NO CLOUDS BELOW 12,000 FEET WITH NO
SIGNIFICANT WEATHER AND/OR OBSTRUCTIONS TO VISIBILITY.

* - THESE STATIONS ARE NOT NWS STATIONS...THUS NOT UNDER NWS
QUALITY CONTROL.  THEY ALSO DO NOT REPORT WEATHER SUCH
AS PRECIPITATION OR FOG.

IAZ001>003-012>014-020>022-031>034-043>046-201100-
   NORTHWEST IOWA

CITY           SKY/WX    TMP DP  RH WIND       PRES   REMARKS
CARROLL *      CLOUDY    28  28 100 S8        30.13F WCI  20
CHEROKEE *     CLOUDY    30  30 100 S10       30.11S FOG     WCI  21
DENISON *      CLOUDY    30  30 100 S13       30.10S FOG     WCI  20
LE MARS *      CLOUDY    32  32 100 S9        30.10S FOG     WCI  24
ORANGE CITY *  CLOUDY    30  30 100 S7        30.08S FOG     WCI  23
SHELDON *      CLOUDY    30  30 100 S12       30.07F FOG     WCI  21
SIOUX CITY     CLOUDY    32  30  92 SE10      30.10F FOG     WCI  24
SPENCER        CLOUDY    30  27  88 S12       30.11S FOG     WCI  20
STORM LAKE *   CLOUDY    28  28 100 S12       30.11S FOG     WCI  18
$$

IAZ055>058-069>071-079>083-090>094-201100-
   SOUTHWEST IOWA

CITY           SKY/WX    TMP DP  RH WIND       PRES   REMARKS
ATLANTIC *     CLOUDY    30  30 100 S8        30.13F FOG     WCI  23
AUDUBON *      CLOUDY    28  25  86 S8        30.14R HAZE    WCI  20
CLARINDA *     CLOUDY    30  30 100 S8        30.17F FOG     WCI  23
COUNCIL BLFS * CLOUDY    30  30 100 S12       30.10F FOG     WCI  21
CRESTON *      CLOUDY    28  30 100 S10       30.15F FOG     WCI  19
HARLAN  *      CLOUDY    30  30 100 S9        30.16S FOG     WCI  22
LAMONI         CLOUDY    31  30  96 S5        30.17F FOG     WCI  26
RED OAK *      CLOUDY    30  30 100 S6        30.15S FOG     WCI  24
SHENANDOAH *   CLOUDY    32  32 100 S8        30.15S FOG     WCI  25
$$

IAZ047>049-059>061-072>074-084-201100-
   CENTRAL IOWA

CITY           SKY/WX    TMP DP  RH WIND       PRES   REMARKS
AMES           CLOUDY    30  29  96 SE5       30.17S FOG     WCI  25
ANKENY *       CLOUDY    32  32 100 S5        30.18S FOG     WCI  27
CHARITON *     CLOUDY    32  32 100 S6        30.18S FOG     WCI  26
DES MOINES     LGT SNOW  32  29  88 SW8       30.18S FOG     WCI  25
GRINNELL*      CLOUDY    30  28  93 SE8       30.19S FOG     WCI  23
KNOXVILLE *    CLOUDY    32  30  93 SE6       30.17S FOG     WCI  26
MARSHALLTOWN   CLOUDY    29  28  96 SE7       30.17F FOG     WCI  22
PELLA *        CLOUDY    30  30 100 SE6       30.20F FOG     WCI  24
PERRY *        CLOUDY    30  30 100 S6        30.16F FOG     WCI  24
$$

IAZ004>006-015-016-023>025-035-036-201100-
   NORTH CENTRAL IOWA

CITY           SKY/WX    TMP DP  RH WIND       PRES   REMARKS
ALGONA *       CLOUDY    28  30 100 S13       30.14S FOG     WCI  18
CLARION *      CLOUDY    30  30 100 S8        30.15S FOG     WCI  23
ESTHERVILLE    CLOUDY    28  27  96 S12       30.12S WCI  18
FORT DODGE *   CLOUDY    28  25  86 S7        30.16S WCI  21
MASON CITY     FOG       28  28 100 SE9       30.17F VSB 3/4 WCI  19
FOREST CITY *  FOG       30  30 100 S8        30.15F VSB 1   WCI  23
IOWA FALLS *   CLOUDY    30  29  96 SE8       30.17F FOG     WCI  22
$$

IAZ007>011-017>019-026>030-037>042-050>054-066-201100-
   NORTHEAST IOWA

CITY           SKY/WX    TMP DP  RH WIND       PRES   REMARKS
CEDAR RAPIDS   CLOUDY    29  24  82 SE6       30.21F WCI  23
CHARLES CITY * CLOUDY    28  27  93 SE9       30.18F WCI  20
CLINTON *      CLOUDY    27  23  86 E5        30.28S WCI  21
DECORAH *      CLOUDY    27  25  93 SE6       30.19F WCI  20
DUBUQUE        CLOUDY    26  24  92 SE3       30.23F FOG
MONTICELLO *   CLOUDY    28  27  93 SE8       30.23F WCI  20
OELWEIN *      CLOUDY    28  25  86 SE7       30.21S WCI  21
WATERLOO       CLOUDY    29  25  85 SE6       30.20F WCI  23
$$

IAZ064-065-067-068-078-201100-
   EAST CENTRAL IOWA

CITY           SKY/WX    TMP DP  RH WIND       PRES   REMARKS
DAVENPORT      CLOUDY    29  23  78 SE3       30.25F
IOWA CITY      CLOUDY    30  24  78 SE6       30.24F WCI  24
MT. PLEASANT * CLOUDY    30  27  86 SE5       30.23F WCI  25
MUSCATINE *    CLOUDY    32  25  74 CALM      30.26S
QUAD CITIES    CLOUDY    29  24  82 E5        30.25F WCI  24
$$

IAZ062-063-075>077-085>089-095>099-201100-
   SOUTHEAST IOWA

CITY           SKY/WX    TMP DP  RH WIND       PRES   REMARKS
BURLINGTON     CLOUDY    31  25  78 S3        30.24R
FAIRFIELD *    CLOUDY    30  27  86 SE7       30.22F WCI  23
FORT MADISON * CLOUDY    32  28  86 CALM      30.25R
KEOKUK *       CLOUDY    32  28  86 CALM      30.23S
OSKALOOSA *    CLOUDY    30  28  93 SE5       30.21F FOG     WCI  25
CENTERVILLE *  FOG       32  32 100 SE6       30.20S VSB 1   WCI  26
OTTUMWA        CLOUDY    30  28  92 SE7       30.20F FOG     WCI  23
WASHINGTON *   MIX PCPN  30  30 100 SE7       30.22F WCI  23
$$

ABBREVIATIONS USED IN REMARKS
   TC - TEMPERATURES IN CELSIUS
  WCI - WIND CHILL INDEX
   HX - HEAT INDEX
  VSB - VISIBILITY
$$



USA.gov is the U.S. government's official web portal to all federal, state and local government web resources and services.